User: anonymous   Login
Location: Bittkow
(50.3000°N, 19.0000°E)
Time: 03:07:26
(UTC+00:00)
Language:

SL-16 R/B - Orbit

View from above orbital plane
View from above orbital plane
View from above satellite
View from above satellite

Ground track
Ground track

The orbit data is extracted from the following two-line orbital elements,

1 27006U 01056F   20329.34623616 -.00000043  00000-0  12557-5 0  9997
2 27006  99.4965  98.6498 0013880 287.7051 125.5198 13.70964279948621
Epoch (UTC): 24 November 2020 08:18:34
Eccentricity: 0.0013880
inclination: 99.4965°
perigee height: 986 km
apogee height: 1006 km
right ascension of ascending node: 98.6498°
argument of perigee: 287.7051°
revolutions per day: 13.70964279
mean anomaly at epoch: 125.5198°
orbit number at epoch: 94862

The dashed part of the orbit path shows where the satellite is in the earth's shadow,  

DLR